STARLINK-36090

Last updated on Mon Dec 15 2025 00:02:12 GMT+0000 (Coordinated Universal Time)

1 66855U 25281H 25348.25003472 -.01217638 00000+0 -50356-2 0 9993 2 66855 43.0006 112.9945 0001573 267.2639 271.5316 15.87306515 1521
UTC large
Height (km)
Speed (km/s)
/
Latitude / Longitude
Inclination (degrees)
Orbital Period (minutes)
Azimuth
Elevation
Range (km)
Doppler Factor

Next 0 passes for location: London (51.5072 / 0.1276)

Sorry there are no passes over London.